Location: Newport
(44.6370°N, 124.0520°W)
Time: 03:02:01
(UTC-07:00)

Vanguard 2 Rocket - Visible Passes

Search period start: 23 July 2018 00:00
Search period end: 02 August 2018 00:00
Orbit: 554 x 3327 km, 32.9° (Epoch: 22 July)

Date Brightness Start Highest point End Pass type
(mag) Time Alt. Az. Time Alt. Az. Time Alt. Az.
23 Jul 8.7 02:31:14 16° SE 02:31:14 16° SE 02:34:02 10° ESE visible
23 Jul 8.2 04:37:04 15° SW 04:41:47 35° S 04:51:01 10° ESE visible
24 Jul 7.8 03:41:00 26° S 03:42:28 29° SSE 03:49:39 10° ESE visible
25 Jul 8.4 02:44:59 20° SE 02:44:59 20° SE 02:48:31 10° ESE visible
25 Jul 8.3 04:50:48 12° WSW 04:55:50 33° S 05:04:40 10° ESE visible
26 Jul 7.7 03:54:50 26° SSW 03:56:30 30° S 04:03:32 10° ESE visible
27 Jul 8.2 02:58:54 22° SE 02:58:54 22° SE 03:02:40 10° ESE visible
27 Jul 8.4 05:04:44 10° WSW 05:09:58 28° S 05:18:00 10° SE visible
28 Jul 7.8 04:08:52 24° SSW 04:10:35 27° S 04:17:11 10° SE visible
29 Jul 8.2 03:13:05 21° SSE 03:13:05 21° SSE 03:16:36 10° ESE visible
29 Jul 8.6 05:19:27 10° WSW 05:24:08 22° S 05:30:52 10° SE visible
30 Jul 8.0 04:23:12 20° SSW 04:24:44 22° S 04:30:29 10° SE visible
31 Jul 8.4 03:27:33 18° SSE 03:27:33 18° SSE 03:30:14 10° SE visible
01 Aug 8.3 04:37:51 15° SSW 04:38:55 16° S 04:43:08 10° SSE visible
